This demonstration page uses our WeatherBlox Daily Observations layout. Learn more.

Left ArrowRight Arrow

39.92423, -83.80882

Hourly Observations for March 14, 2020

Temp ( °F °C ) Dew Point ( °F °C ) Humidity (%) Winds ( mph kmh ) Pressure ( in mb ) Visibility ( mi km ) Precip ( " mm )
12:56 am 00:56 Clear 37 2.8 28 -2.2 70 70 NW 8 13 30.41 1030 10 16.0934 0 0
1:56 am 01:56 Clear 36 2.2 29 -1.7 76 76 NW 6 9 30.42 1030 10 16.0934 0 0
2:56 am 02:56 Clear 36 2.2 28 -2.2 73 73 NNW 3 6 30.43 1031 10 16.0934 0 0
3:56 am 03:56 Clear 34 1.1 31 -0.6 89 89 Calm 30.44 1031 10 16.0934 0 0
4:56 am 04:56 Mostly Clear 33 0.6 31 -0.6 92 92 Calm 30.44 1031 10 16.0934 0 0
5:56 am 05:56 Clear 34 1.1 32 0 92 92 Calm 30.42 1030 10 16.0934 0 0
6:56 am 06:56 Cloudy 35 1.7 31 -0.6 85 85 ENE 3 6 30.43 1031 10 16.0934 0 0
7:56 am 07:56 Cloudy 36 2.2 33 0.6 89 89 NE 3 6 30.45 1031 10 16.0934 0 0
8:56 am 08:56 Cloudy 38 3.3 29 -1.7 70 70 NE 8 13 30.45 1031 10 16.0934 0 0
9:56 am 09:56 Cloudy 40 4.4 23 -5 51 51 ENE 5 7 30.49 1032 10 16.0934 0 0
10:56 am 10:56 Cloudy 40 4.4 22 -5.6 49 49 E 9 15 30.48 1032 10 16.0934 0 0
11:56 am 11:56 Cloudy with Light Rain 34 1.1 30 -1.1 85 85 N 14 22 30.48 1032 5 8.0467 0.001 0.001
12:10 pm 12:10 Cloudy with Light Snow 34 1 30 -1 87 87 NNE 10 17 30.51 1033 1.75 2.816345 0.001 0.001
12:24 pm 12:24 Cloudy with Light Snow 32 0 32 0 100 100 NNE 10 17 30.52 1034 1 1.60934 0.01 0.254
12:28 pm 12:28 Cloudy with Light Snow 32 0 32 0 100 100 NNE 10 17 30.51 1033 0.75 1.207005 0.01 0.254
12:43 pm 12:43 Cloudy with Light Snow 32 0 32 0 100 100 NNE 9 15 30.51 1033 1.25 2.011675 0.01 0.254
12:49 pm 12:49 Cloudy with Light Snow 32 0 32 0 100 100 NE 10 17 30.51 1033 2 3.21868 0.01 0.254
12:56 pm 12:56 Cloudy with Light Snow 32 0 32 0 100 100 NE 12 19 30.49 1033 6 9.65604 0.01 0.254
1:09 pm 13:09 Cloudy with Light Snow 32 0 32 0 100 100 NE 10 17 30.5 1033 3 4.82802 0.001 0.001
1:12 pm 13:12 Cloudy with Light Snow 32 0 32 0 100 100 NE 10 17 30.49 1033 1.75 2.816345 0.001 0.001
1:56 pm 13:56 Cloudy with Light Snow 32 0 32 0 100 100 NE 9 15 30.47 1032 2.5 4.02335 0.001 0.001
2:07 pm 14:07 Cloudy with Light Snow 32 0 32 0 100 100 ENE 8 13 30.48 1032 1.25 2.011675 0.001 0.001
2:12 pm 14:12 Cloudy with Light Snow 32 0 32 0 100 100 ENE 8 13 30.48 1032 1 1.60934 0.001 0.001
2:31 pm 14:31 Cloudy with Light Snow 32 0 32 0 100 100 NE 8 13 30.48 1032 1.25 2.011675 0.03 0.762
2:44 pm 14:44 Cloudy with Light Snow 34 1 34 1 100 100 NE 9 15 30.47 1032 1.25 2.011675 0.04 1.016
2:56 pm 14:56 Cloudy with Light Snow 33 0.6 33 0.6 100 100 ENE 9 15 30.46 1031 1.25 2.011675 0.05 1.27
3:20 pm 15:20 Cloudy with Light Snow 34 1 34 1 100 100 E 8 13 30.46 1031 1 1.60934 0.02 0.508
3:29 pm 15:29 Cloudy with Light Snow 34 1 34 1 100 100 E 8 13 30.45 1031 0.75 1.207005 0.03 0.762
3:37 pm 15:37 Cloudy with Light Snow 34 1 34 1 100 100 E 8 13 30.45 1031 1 1.60934 0.04 1.016
3:53 pm 15:53 Cloudy with Light Snow 34 1 34 1 100 100 ENE 8 13 30.45 1031 0.75 1.207005 0.05 1.27
3:56 pm 15:56 Cloudy with Light Snow 33 0.6 33 0.6 100 100 ENE 8 13 30.44 1031 0.75 1.207005 0.06 1.524
4:07 pm 16:07 Cloudy with Light Snow 34 1 34 1 100 100 E 10 17 30.45 1031 1.25 2.011675 0.01 0.254
4:30 pm 16:30 Cloudy with Light Snow 34 1 34 1 100 100 ENE 8 13 30.44 1031 1 1.60934 0.02 0.508
4:51 pm 16:51 Cloudy with Light Snow 34 1 34 1 100 100 ENE 8 13 30.43 1030 1.5 2.41401 0.04 1.016
4:56 pm 16:56 Cloudy with Light Snow 33 0.6 33 0.6 100 100 ENE 8 13 30.42 1030 2.5 4.02335 0.04 1.016
5:03 pm 17:03 Cloudy with Light Snow 34 1 34 1 100 100 ENE 8 13 30.43 1030 6 9.65604 0.01 0.254
5:56 pm 17:56 Cloudy with Light Snow 33 0.6 33 0.6 100 100 NE 9 15 30.43 1030 3 4.82802 0.02 0.508
6:02 pm 18:02 Cloudy with Light Snow 34 1 34 1 100 100 NE 7 11 30.44 1031 1.75 2.816345 0.01 0.254
6:22 pm 18:22 Cloudy with Light Snow 34 1 34 1 100 100 NE 8 13 30.44 1031 2 3.21868 0.01 0.254
6:24 pm 18:24 Cloudy with Light Snow 34 1 34 1 100 100 NE 8 13 30.44 1031 1.75 2.816345 0.02 0.508
6:49 pm 18:49 Cloudy with Light Snow 32 0 32 0 100 100 NE 10 17 30.43 1031 1.75 2.816345 0.03 0.762
6:56 pm 18:56 Cloudy with Light Snow 32 0 32 0 100 100 NE 10 17 30.41 1030 1.75 2.816345 0.03 0.762
7:03 pm 19:03 Cloudy with Light Snow 32 0 32 0 100 100 ENE 12 19 30.43 1031 2 3.21868 0.001 0.001
7:22 pm 19:22 Cloudy with Light Snow 32 0 32 0 100 100 ENE 13 20 30.4 1030 4 6.43736 0.01 0.254
7:56 pm 19:56 Cloudy with Light Snow 32 0 32 0 100 100 ENE 10 17 30.39 1029 9 14.48406 0.01 0.254
8:56 pm 20:56 Cloudy 33 0.6 33 0.6 100 100 N 12 19 30.45 1031 10 16.0934 0.001 0.001
9:26 pm 21:26 Cloudy with Light Snow 34 1 34 1 100 100 NNE 9 15 30.48 1032 1.75 2.816345 0.001 0.001
9:45 pm 21:45 Cloudy with Light Snow 34 1 34 1 100 100 NNE 6 9 30.47 1032 1.75 2.816345 0.01 0.254
9:56 pm 21:56 Cloudy with Light Snow 33 0.6 33 0.6 100 100 NNE 8 13 30.46 1031 2 3.21868 0.01 0.254
10:07 pm 22:07 Cloudy with Light Snow 34 1 34 1 100 100 NNE 9 15 30.48 1032 3 4.82802 0.001 0.001
10:56 pm 22:56 Cloudy with Light Snow 33 0.6 33 0.6 100 100 NNE 12 19 30.46 1031 4 6.43736 0.001 0.001
11:56 pm 23:56 Cloudy with Light Snow 33 0.6 33 0.6 100 100 NNE 12 19 30.45 1031 7 11.26538 0.001 0.001

Powered by AerisWeather